Location: Mizzole
(45.4833°N, 11.0500°E)
Time: 14:56:54
(UTC+00:00)

Cosmos 2100 Rocket - Pass Details

Date: 21 October 2019
Orbit: 955 x 1002 km, 82.9° (Epoch: 12 November)

Event Time Altitude Azimuth Distance (km) Brightness Sun altitude
Rises 17:46:48 0° 355° (N) 3,666 7.1 -15.8°
Reaches altitude 10° 17:49:25 10° 0° (N) 2,710 6.3 -16.2°
Maximum altitude 17:55:27 53° 77° (ENE) 1,166 4.0 -17.3°
Drops below altitude 10° 18:01:25 10° 154° (SSE) 2,678 6.0 -18.3°
Sets 18:03:58 0° 159° (SSE) 3,619 6.7 -18.8°
